Flag for Germany Weather past 2 weeks in Weimar, Thuringia, Germany

Now
46 °F

Partly sunny.


Feels Like: 38 °F
Forecast: 47 / 50 °F
Wind: 26 mph from Southwest

Location: Erfurt-Bindersleben

Current Time: Dec 22, 2014 at 3:33:23 PM

Latest Report: Dec 22, 2014 at 2:50 PM


Visibility: N/A

Pressure: 30.01 "Hg

Humidity: 82%

Dew point: 41 °F

Location of WeimarLocation

Historic Weather in Weimar — Graph

°F

Weimar temperature yesterday

Maximum temperature yesterday: 43 °F (at 9:50 PM)
Minimum temperature yesterday: 36 °F (at 12:20 AM)
Average temperature yesterday: 39 °F

Past Weeks' High & Low Weather Summary

 TemperatureHumidityPressure
High54 °F (Dec 18, 8:20 PM)100% (Dec 8, 4:20 AM)30.36 "Hg (Dec 8, 4:20 AM)
Low25 °F (Dec 9, 1:20 AM)75% (Dec 8, 11:50 AM)29.47 "Hg (Dec 12, 5:50 PM)
Average39 °F89%29.94 "Hg
* Reported Dec 7 2:20 PM — Dec 22 2:20 PM, Weimar, Weather by CustomWeather, © 2014

Note: Actual official high and low records may vary slightly from our data, if they occured in-between our weather recording intervals... More about our weather records

Advertising

Weimar weather history for previous 24 hours

 ConditionsComfort  
Time TempWeatherWind HumidityBarometerVisibility
2:20 PM
Dec 22
46 °FPartly sunny.28 mph82%29.98 "HgN/A
1:50 PM46 °FPartly sunny.30 mph82%29.98 "HgN/A
1:20 PM46 °FPartly sunny.30 mph82%29.98 "HgN/A
12:50 PM45 °FPartly sunny.26 mph87%30.01 "HgN/A
12:20 PM45 °FPartly sunny.25 mph87%30.01 "HgN/A
11:50 AM45 °FPartly sunny.31 mph87%30.01 "HgN/A
11:20 AM45 °FPartly sunny.32 mph87%30.01 "HgN/A
10:50 AM45 °FPartly sunny.28 mph87%30.01 "HgN/A
10:20 AM45 °FPartly sunny.28 mph87%30.01 "HgN/A
9:50 AM45 °FPartly sunny.23 mph87%30.04 "HgN/A
9:20 AM45 °FPartly sunny.24 mph81%30.04 "HgN/A
8:50 AM45 °FPartly sunny.28 mph81%30.04 "HgN/A
8:20 AM45 °FPartly sunny.26 mph81%30.04 "HgN/A
7:50 AM45 °FPassing clouds.25 mph81%30.04 "HgN/A
7:20 AM45 °FPassing clouds.31 mph81%30.01 "HgN/A
6:20 AM45 °FPassing clouds.29 mph81%30.01 "HgN/A
5:50 AM45 °FPassing clouds.22 mph81%30.04 "HgN/A
5:20 AM45 °FPassing clouds.20 mph81%30.04 "HgN/A
4:50 AM43 °FPassing clouds.18 mph87%30.07 "HgN/A
4:20 AM43 °FPassing clouds.22 mph87%30.07 "HgN/A
3:50 AM43 °FPassing clouds.21 mph87%30.07 "HgN/A
3:20 AM43 °FPassing clouds.25 mph87%30.09 "HgN/A
2:50 AM43 °FPassing clouds.30 mph87%30.09 "HgN/A
2:20 AM43 °FPassing clouds.31 mph87%30.09 "HgN/A
1:20 AM45 °FPassing clouds.30 mph81%30.09 "HgN/A
12:50 AM43 °FPartly cloudy.29 mph87%30.09 "HgN/A
12:20 AM43 °FPartly cloudy.26 mph81%30.09 "HgN/A
11:50 PM
Dec 21
43 °FPartly cloudy.23 mph81%30.12 "HgN/A
11:20 PM43 °FPassing clouds.17 mph87%30.15 "HgN/A
10:20 PM43 °FPartly cloudy.22 mph81%30.15 "HgN/A
9:50 PM43 °FPassing clouds.22 mph81%30.15 "HgN/A
9:20 PM41 °FLight rain. Passing clouds.17 mph87%30.15 "HgN/A
8:50 PM41 °FLight rain. Passing clouds.15 mph87%30.18 "HgN/A
8:20 PM41 °FLight rain. Passing clouds.17 mph87%30.18 "HgN/A
7:50 PM41 °FPassing clouds.17 mph87%30.21 "HgN/A
7:20 PM41 °FLight rain. Passing clouds.15 mph87%30.21 "HgN/A
6:50 PM41 °FPassing clouds.16 mph81%30.21 "HgN/A
6:20 PM41 °FPassing clouds.18 mph81%30.21 "HgN/A
5:50 PM41 °FLight rain. Passing clouds.20 mph81%30.21 "HgN/A
5:20 PM41 °FPassing clouds.20 mph81%30.24 "HgN/A
4:50 PM41 °FPassing clouds.17 mph81%30.24 "HgN/A
4:20 PM41 °FPassing clouds.16 mph81%30.24 "HgN/A
3:50 PM41 °FBroken clouds.17 mph81%30.27 "HgN/A
3:20 PM41 °FLight rain. Broken clouds.20 mph81%30.27 "HgN/A
Weather by CustomWeather, © 2014

See weather overviewHow to use our weather pages